Regional Weather Roundup
Issued by NWS

Home | Current Version | Previous Version | Text Only | Print | Product List | Glossary On
Versions: 1 2 3 4 5 6 7 8 9 10 11 12 13 14 15 16 17 18 19 20 21 22 23 24 25 26 27 28 29 30 31 32 33 34 35 36 37 38 39 40 41 42 43 44 45 46 47 48 49 50
000
ASUS43 KTOP 162108
RWRKS

WEATHER ROUNDUP FOR KANSAS
NATIONAL WEATHER SERVICE GOODLAND KS
400 PM CDT TUE SEP 16 2014

NOTE:  "FAIR" INDICATES FEW OR NO CLOUDS BELOW 12,000 FEET WITH NO
SIGNIFICANT WEATHER AND/OR OBSTRUCTIONS TO VISIBILITY.

KSZ001>006-013>018-027>032-041>047-162200-
NORTHWEST KANSAS

CITY           SKY/WX    TMP DP  RH WIND       PRES   REMARKS
GOODLAND       SUNNY     84  55  36 SW10      30.02F
HAYS           MOSUNNY   75  61  60 S13G22    30.03F
HILL CITY      PTSUNNY   74  58  57 S14G23    30.03F
RUSSELL        MOSUNNY   74  59  59 S12G21    30.03F
$$

KSZ061>065-074>080-084>089-162200-
SOUTHWEST KANSAS

CITY           SKY/WX    TMP DP  RH WIND       PRES   REMARKS
DODGE CITY     SUNNY     83  59  44 S20G26    30.04F
ELKHART          N/A     84  59  42 S14         N/A
GARDEN CITY    SUNNY     83  60  45 SW15G24   30.03F
GREAT BEND     MOSUNNY   79  61  53 S15G24    30.03F
LIBERAL        SUNNY     86  61  42 SW16G22   30.07F
PRATT          SUNNY     79  57  47 S9G18     30.07F
$$

KSZ066>073-081>083-090>101-162200-
SOUTHEAST KANSAS

CITY           SKY/WX    TMP DP  RH WIND       PRES   REMARKS
CHANUTE        SUNNY     76  62  62 SE8       30.08F
COFFEYVILLE    PTSUNNY   75  63  66 E7        30.08F
HUTCHINSON     SUNNY     79  59  50 SE12      30.06F
MEDICINE LODGE   N/A     79  61  53 S9G17     30.05F
NEWTON         SUNNY     75  57  53 SE6       30.09F
PARSONS        CLOUDY    76  63  64 CALM      30.09F
WICHITA INTL   SUNNY     79  60  52 VRB7      30.06F
WICHITA JABRA  SUNNY     78  59  51 SE10      30.06F
WICHITA MCCONL SUNNY     79  57  47 S7        30.07F
WINFIELD       MOSUNNY   77  64  64 SE7       30.08F
$$

KSZ007>012-019>026-033>040-048>060-102>105-162200-
NORTHEAST KANSAS

CITY           SKY/WX    TMP DP  RH WIND       PRES   REMARKS
CONCORDIA      CLOUDY    69  52  54 SE12      30.06F
EMPORIA        SUNNY     74  52  46 VRB6      30.08F
LAWRENCE       SUNNY     72  50  45 SE5       30.09F
MANHATTAN      CLOUDY    74  50  42 CALM      30.06F
MARYSVILLE     CLOUDY    70  50  49 S7        30.07F
OLATHE IND     SUNNY     71  52  50 S6        30.10F
OLATHE EXE     SUNNY     70  53  54 SE5       30.09F
SALINA         SUNNY     75  54  47 S8        30.06F
TOPEKA BILLARD SUNNY     72  50  45 SE5       30.08F
TOPEKA FORBES  SUNNY     73  52  47 SE8       30.08F
$$



USA.gov is the U.S. government's official web portal to all federal, state and local government web resources and services.